1st Responders/1st Detectors/Storm Spotters Weather Summary for Carroll County, KY

Forecast Maps


Reg. NEXRAD Animation


National Fire Danger: Day 1 & 2 Map

Current NWS Watch/Warnings

SPC Convective Day 1 Outlook


Day 2 Outlook

(Click images to enlarge|Page will refresh every 5 minutes)
UK Ag. Weather Center Desktop Severe Weather Service[HERE]
Carroll County, KY Hazardous Weather Outlook Webcast
(9 AM to 9 PM Mon-Fri)
[Fast]
[Dial-up]


UKAWC 1st Detectors/1st Responders Precision Weather Forecast For CARROLL County, Kentucky
(based on the NWS County Digital Forecast)

ISSUED AT 04:00 UTC ON SUNDAY JUL 22 2018
DAY SUNDAY
EDT 3HR 1A 2A 3A 4A 5A 6A 7A 8A 9A 10A 11A NOON 1P 2P 3P 4P 5P 6P 7P
MAX/MIN -- -- -- -- -- -- -- 67° -- -- -- -- -- -- -- -- -- -- 76°
TEMP 67° 68° 67° 67° 67° 67° 67° 67° 70° 72° 72° 74° 74° 76° 76° 76° 76° 76° 76°
SKY COVER 86% 86% 88% 91% 93% 95% 98% 100% 99% 98% 98% 96% 93% 91% 90% 89% 88% 87% 85%
Clouds
DEW PT 67° 67° 67° 67° 65° 65° 67° 67° 67° 67° 68° 68° 70° 70° 70° 70° 70° 70° 68°
RH 100% 96% 96% 100% 96% 96% 99% 97% 93% 87% 86% 84% 84% 81% 78% 78% 78% 78% 78%
POP 12HR -- -- -- -- -- -- -- 45% -- -- -- -- -- -- -- -- -- -- --
RAIN/SNOW (liq.equ) -- 0.10in -- -- -- -- -- 0.04in -- -- -- -- -- 0.09in -- -- -- -- --
SNOWFALL -- 0in -- -- -- -- -- 0in -- -- -- -- -- 0in -- -- -- -- --
WIND SPEED(MPH) 7 7 7 7 7 7 7 6 6 6 6 6 6 6 6 6 6 6 7
WIND Gust(MPH) 7 7 7 7 7 7 7 6 6 6 6 6 6 6 6 6 6 6 7
WIND DIR W W W W W W W W W W NW NW NW NW NW N N N N
DEW Mod Dew Mod Dew Mod Dew -- -- -- -- -- -- -- -- -- -- -- Lgt Dew Lgt Dew Lgt Dew Lgt Dew Lgt Dew
HeatIndex 67 68 67 67 67 67 67 67 70 72 72 74 74 76 76 76 76 76 76
Rain Showers Chance Chance Chance Chance Chance Chance Chance Chance Chance Chance Likely Likely Likely Likely Likely Likely Likely Likely Chance
Thunder Storm -- -- -- -- -- -- -- -- -- -- -- Chance Chance Chance Chance Chance Chance Chance Chance
WIND CHILL -- -- -- -- -- -- -- -- -- -- -- -- -- -- -- -- -- -- --
SPRAY COND
DRY COND
LIVESTOCK HEATSTRESS 67.00 67.80 66.82 67.00 66.82 66.82 66.95 66.86 69.57 71.06 70.98 72.66 72.66 74.20 73.92 73.92 73.92 73.92 73.92



DAY MONDAY TUESDAY WEDNESDAY THURSDAY FRIDAY SATURDAY
EDT 6HR 8P 9P 10P 11P MIDN 1A 2A 3A 4A 5A 6A 7A 8A 9A 10A 11A NOON 2P 5P 8P 11P 2A 5A 8A 11A 2P 5P 8P 2A 8A 2P 8P 2A 8A 2P 8P 2A 8A 2P 8P 2A 8A 2P 8P
MAX/MIN -- -- -- -- -- -- -- -- -- -- -- -- 65° -- -- -- -- -- 79° -- -- -- -- 65° -- -- 85° -- -- 67° 85° -- -- 65° 85° -- -- 65° 83° -- -- 65° 83° --
TEMP 74° 72° 70° 68° 67° 67° 67° 65° 65° 65° 65° 65° 65° 68° 72° 74° 76° 77° 79° 76° 70° 67° 67° 67° 77° 83° 85° 81° 70° 70° 83° 81° 68° 68° 83° 81° 68° 67° 81° 79° 67° 67° 81° 79°
SKY COVER 85% 84% 81% 79% 77% 75% 74% 74% 74% 74% 74% 74% 73% 71% 69% 69% 70% 72% 67% 72% 54% 51% 48% 45% 55% 64% 65% 69% 66% 67% 61% 53% 37% 38% 39% 39% 41% 40% 44% 46% 53% 52% 47% 56%
Clouds
DEW PT 68° 67° 67° 67° 65° 65° 63° 63° 61° 61° 61° 63° 63° 63° 65° 65° 65° 65° 65° 67° 65° 65° 65° 67° 68° 72° 68° 72° 68° 68° 70° 70° 67° 67° 67° 68° 65° 65° 67° 65° 63° 63° 65° 65°
RH 84% 87% 89% 93% 93% 92% 90% 89% 86% 90% 89% 93% 92% 83% 78% 73% 68% 66% 64% 76% 84% 93% 93% 96% 74% 69% 58% 74% 93% 96% 64% 72% 97% 96% 58% 64% 89% 96% 61% 62% 87% 90% 58% 64%
POP 12HR 69% -- -- -- -- -- -- -- -- -- -- -- 35% -- -- -- -- -- -- 28% -- -- -- 23% -- -- -- 37% -- 29% -- 36% -- 22% -- 12% -- 15% -- 23% -- 20% -- 11%
RAIN/SNOW (liq.equ) 0.23in -- -- -- -- -- 0.03in -- -- -- -- -- 0.00in -- -- -- -- 0.01in -- 0.08in -- 0.01in -- 0.01in -- 0.01in -- 0.08in -- -- -- -- -- -- -- -- -- -- -- -- -- -- -- --
SNOWFALL 0in -- -- -- -- -- 0in -- -- -- -- -- 0in -- -- -- -- 0in -- 0in -- 0in -- 0in -- 0in -- 0in -- -- -- -- -- -- -- -- -- -- -- -- -- -- -- --
WIND SPEED(MPH) 7 7 7 7 7 7 7 7 6 6 6 6 6 6 6 6 6 6 7 6 5 2 2 5 5 2 5 2 0 0 1 1 0 1 6 2 1 1 5 2 1 2 5 5
WIND DIR N N N N N N N N N N N N N N N N N N N N N N N N NE N N NE NE N N N NW NW NW NW N N NW N N NE W N
HeatIndex 74 72 70 68 67 67 67 65 65 65 65 65 65 68 72 74 76 77 79 76 70 67 67 67 77 88 88 85 70 70 88 85 68 68 87 85 68 67 84 82 67 67 84 79
Rain Showers Chance Chance Chance Slight Chance Slight Chance Slight Chance -- -- -- -- -- -- -- Slight Chance Slight Chance Slight Chance Slight Chance Slight Chance Chance Slight Chance -- Slight Chance Slight Chance Chance Chance Chance Chance Chance Slight Chance Chance Chance Slight Chance -- -- -- -- -- Slight Chance Slight Chance Slight Chance -- -- -- --
Thunder Storm Chance Chance -- -- -- -- -- -- -- -- -- -- -- -- -- Slight Chance Slight Chance Slight Chance Chance Slight Chance -- Slight Chance Slight Chance Chance Chance Chance Chance Chance Slight Chance Chance Chance Slight Chance -- -- -- -- -- Slight Chance Slight Chance Slight Chance -- -- -- --
WIND CHILL -- -- -- -- -- -- -- -- -- -- -- -- -- -- -- -- -- -- -- -- -- -- -- -- -- -- -- -- -- -- -- -- -- -- -- -- -- -- -- -- -- -- -- --
SPRAY COND
DRY COND
LIVESTOCK HEATSTRESS 72.66 71.06 69.32 67.65 66.68 66.64 66.55 64.62 64.52 64.66 64.62 64.76 64.73 67.14 70.40 71.74 72.97 73.60 75.00 73.73 69.01 66.68 66.68 66.82 74.40 78.87 78.95 77.83 69.57 69.75 78.21 77.58 67.85 67.80 77.41 76.60 67.44 66.82 76.24 74.78 66.41 66.55 75.87 75.00

Click on individual weather variable above in left-hand column (ie., TEMP, RH, QPF 12HR) to view state forecast maps






NWS 48 Hr. Forecast Maps,

Regional Hourly Observations For CARROLL County, Kentucky
Issued at 1200 AM EDT SUN JUL 22 2018
NORTHEAST KENTUCKY
  
CITY           SKY/WX    TMP DP  RH WIND       PRES   REMARKS
LEXINGTON      CLOUDY    70  67  90 W9        29.76F                  
COVINGTON      CLOUDY    70  70 100 SW6       29.71F                  
FRANKFORT      CLOUDY    71  68  90 SW9       29.75F                  


Current NOWCAST not available:
Nowcasts are not issued routinely during fair weather. Only when
precipitation or other significant weather is occuring in this county will these
forecasts be issued. Currently, there is no short term forecast in effect.


Fire Weather Forecast For CARROLL County, KY
Provided by the National Weather Service:

Issued at: Sun Jul 22 00:05:01 EDT 2018

CLOUD COVER                     MCldy       Cloudy       Cloudy
PRECIP TYPE                     Tstms        Tstms        Tstms
CHANCE PRECIP (%)                  80           80           70
TEMP (24H TREND)              77 (-6)      66 (+1)           77
RH % (24H TREND)              70 (+6)     100 (+2)           76
20FTWND-AM(MPH)                 SW  5                   Lgt/Var
20FTWND-PM(MPH)                  W  8         W  6      Lgt/Var
PRECIP AMOUNT                    0.18         0.21         0.27
PRECIP DURATION                     5            5            6
MIXING HGT(FT-AGL)               5220                      4330
TRANSPORT WND (MPH)              W 17                      W  8
LAL                                 4            4            4
HAINES INDEX                        3            3            3

REMARKS...None.

.FORECAST FOR DAYS 3 THROUGH 7...
.SUNDAY NIGHT...Mostly cloudy with showers and thunderstorms likely. Lows
in the mid 60s. Northwest winds around 5 mph. 
.MONDAY...Partly sunny with a chance of showers and thunderstorms. Highs
in the upper 70s. North winds around 5 mph. 
.TUESDAY...Mostly cloudy. A chance of showers and thunderstorms. Lows in
the upper 60s. Highs in the lower 80s. Northeast winds around 5 mph. 
.WEDNESDAY...Mostly cloudy. A chance of showers and thunderstorms. Lows in
the upper 60s. Highs in the mid 80s. North winds around 5 mph. 
.THURSDAY...Partly cloudy. Lows in the upper 60s. Highs in the mid 80s.
Northwest winds around 5 mph. 
.FRIDAY...Partly cloudy. Lows in the mid 60s. Highs in the mid 80s.
Northwest winds around 5 mph. 

SPC's Fire Weather Web Tool (Excellent!), SPC's Fire Weather Outlooks, NWS Fire Weather WEB, Fire Danger Class Map,
Keetch-Byram Drought Index, ROMAN Web, Haines Index ,
WFAS's 10-hr Dead Fuel Moist., WFAS's 100-hr Dead Fuel Moist., Probablity of Ignition, Visual blackness Map, Palmer Drought Index, HPC's Rainfall Forecast Maps


Hazardous Weather Outlook For CARROLL County, Kentucky
330 AM EDT Sat Jul 21 2018

 DAY ONE  Today and Tonight.

The probability for widespread hazardous weather is low.

 DAYS TWO THROUGH SEVEN  Sunday through Friday.

The probability for widespread hazardous weather is low.

 SPOTTER INFORMATION STATEMENT  

Spotter activation is not expected at this time.

Latest CARROLL County, Kentucky Watches, Warnings and Advisories.
Additional Drought Info.: UKAWC Drought Page, Kentucky Drought Watch


7-Day Forecast For CARROLL County, KY

OVERNIGHT
Mostly cloudy with a 40 percent chance of showers. Lows in the upper 60s. West winds 5 to 10 mph.

SUNDAY
Showers likely in the morning, then showers likely with a chance of thunderstorms in the afternoon. Highs in the upper 70s. Northwest winds 5 to 10 mph. Chance of rain 70 percent.

SUNDAY NIGHT
Mostly cloudy. Showers likely with a chance of thunderstorms in the evening, then a slight chance of showers after midnight. Lows in the mid 60s. North winds 5 to 10 mph. Chance of rain 60 percent.

MONDAY
Mostly cloudy with a slight chance of showers and thunderstorms in the morning, then partly cloudy with a chance of showers and thunderstorms in the afternoon. Highs in the upper 70s. North winds around 5 mph. Chance of rain 30 percent.

MONDAY NIGHT
Partly cloudy. A chance of showers and thunderstorms, mainly in the evening. Lows in the mid 60s. North winds around 5 mph. Chance of rain 30 percent.

TUESDAY
Partly cloudy with a chance of showers and thunderstorms. Highs in the mid 80s. Chance of rain 40 percent.

TUESDAY NIGHT
Partly cloudy with a chance of showers and thunderstorms. Lows in the upper 60s. Chance of rain 40 percent.

WEDNESDAY
Partly cloudy with a chance of showers and thunderstorms. Highs in the mid 80s. Chance of rain 40 percent.

WEDNESDAY NIGHT
Partly cloudy. A chance of showers and thunderstorms in the evening. Lows in the upper 60s. Chance of rain 30 percent.

THURSDAY
Partly cloudy. Highs in the mid 80s.

THURSDAY NIGHT
Partly cloudy. Lows in the mid 60s.

FRIDAY
Partly cloudy. Highs in the mid 80s.

FRIDAY NIGHT
Partly cloudy. Lows in the mid 60s.

SATURDAY
Partly cloudy. Highs in the lower 80s.

Ag Weather Center, Department of Biosystems & Agricultural Engineering, University of Kentucky